Mount Sterling, KY

12:06 PM EST on November 23, 2017 (GMT -0500)
Mount Sterling-Montgomery County

Weather History for KIOB - March, 2013

Change the Weather History Date:

Saturday, March 30, 2013

  Actual Average Record
Temperature  
Mean Temperature 44 °F -  
Max Temperature 60 °F 62 °F 78 °F (2017)
Min Temperature 28 °F 40 °F 28 °F (2013)
Degree Days  
Heating Degree Days 21    
Moisture  
Dew Point 34 °F    
Average Humidity 70    
Maximum Humidity 100    
Minimum Humidity 31    
Precipitation  
Precipitation 0.00 in - - ()
Sea Level Pressure  
Sea Level Pressure 30.15 in    
Wind  
Wind Speed 3 mph (SSW)    
Max Wind Speed 12 mph    
Max Gust Speed 16 mph    
Visibility 8 miles    
Events Fog    
Averages and records for this station are not official NWS values.
T = Trace of Precipitation, MM = Missing Value Source: NWS Daily Summary

Daily Weather History Graph

Daily Weather History Graph

Search for Another Location

Airport or City:

Trip Planner

Search our weather history database for the weather conditions in past years. The results will help you decide how hot, cold, wet, or windy it might be!

Date:

Astronomy

Mar. 30, 2013 Rise Set
Actual Time 7:23 AM EDT 7:57 PM EDT
Civil Twilight 6:57 AM EDT 8:23 PM EDT
Nautical Twilight 6:26 AM EDT 8:55 PM EDT
Astronomical Twilight 5:54 AM EDT 9:27 PM EDT
Moon 11:59 PM EDT (3/30) 9:21 AM EDT (3/30)
Length of Visible Light 13h 26m
Length of Day
12h 33m
Waning Gibbous, 86% of the Moon is Illuminated
Mar 30
Waning Gibbous
Apr 3
Last Quarter
Apr 10
New
Apr 18
First Quarter
Apr 25
Full

Hourly Weather History & Observations

Time (EDT) Temp. Windchill Dew Point Humidity Pressure Visibility Wind Dir Wind Speed Gust Speed Precip Events Conditions
12:15 AM 37.4 °F 34.9 °F 35.6 °F 93% 30.25 in 10.0 mi WSW 3.5 mph - N/A   Clear
12:35 AM 37.4 °F 32.8 °F 37.4 °F 100% 30.24 in 10.0 mi WSW 5.8 mph - N/A   Clear
12:55 AM 37.4 °F 33.8 °F 35.6 °F 93% 30.24 in 10.0 mi WSW 4.6 mph - N/A   Clear
1:15 AM 37.4 °F 34.9 °F 35.6 °F 93% 30.24 in 10.0 mi WSW 3.5 mph - N/A   Clear
1:35 AM 37.4 °F 34.9 °F 35.6 °F 93% 30.24 in 10.0 mi WSW 3.5 mph - N/A   Clear
1:55 AM 33.8 °F 30.8 °F 32.0 °F 93% 30.24 in 5.0 mi WSW 3.5 mph - N/A   Clear
2:15 AM 35.6 °F - 33.8 °F 93% 30.24 in 5.0 mi Calm Calm - N/A   Clear
2:35 AM 33.8 °F - 33.8 °F 100% 30.23 in 4.0 mi Calm Calm - N/A   Clear
2:55 AM 33.8 °F 30.8 °F 32.0 °F 93% 30.23 in 4.0 mi WSW 3.5 mph - N/A   Clear
3:15 AM 33.8 °F 30.8 °F 33.8 °F 100% 30.23 in 4.0 mi WSW 3.5 mph - N/A   Clear
3:35 AM 33.8 °F - 33.8 °F 100% 30.23 in 3.0 mi Calm Calm - N/A   Clear
3:55 AM 33.8 °F - 32.0 °F 93% 30.23 in 7.0 mi Calm Calm - N/A   Clear
4:15 AM 32.0 °F - 32.0 °F 100% 30.23 in 7.0 mi Calm Calm - N/A   Clear
4:35 AM 32.0 °F - 32.0 °F 100% 30.22 in 5.0 mi Calm Calm - N/A   Clear
4:55 AM 32.0 °F - 32.0 °F 100% 30.22 in 5.0 mi Calm Calm - N/A   Clear
5:15 AM 32.0 °F - 32.0 °F 100% 30.22 in 5.0 mi Calm Calm - N/A   Clear
5:35 AM 32.0 °F - 32.0 °F 100% 30.22 in 4.0 mi Calm Calm - N/A   Clear
5:55 AM 30.2 °F - 30.2 °F 100% 30.22 in 3.0 mi Calm Calm - N/A   Scattered Clouds
6:15 AM 30.2 °F - 30.2 °F 100% 30.22 in 0.8 mi Calm Calm - N/A   Overcast
6:35 AM 30.2 °F - 30.2 °F 100% 30.23 in 0.2 mi Calm Calm - N/A Fog Light Freezing Fog
6:55 AM 30.2 °F - 30.2 °F 100% 30.23 in 0.8 mi Calm Calm - N/A   Overcast
7:15 AM 28.4 °F - 28.4 °F 100% 30.24 in 0.2 mi Calm Calm - N/A Fog Light Freezing Fog
7:35 AM 28.4 °F - 28.4 °F 100% 30.25 in 0.2 mi Calm Calm - N/A Fog Light Freezing Fog
7:55 AM 30.2 °F - 30.2 °F 100% 30.25 in 0.2 mi Calm Calm - N/A Fog Light Freezing Fog
8:15 AM 30.2 °F - 30.2 °F 100% 30.25 in 0.2 mi Calm Calm - N/A Fog Light Freezing Fog
8:35 AM 32.0 °F - 32.0 °F 100% 30.25 in 0.2 mi Calm Calm - N/A Fog Light Freezing Fog
8:55 AM 32.0 °F - 32.0 °F 100% 30.25 in 2.5 mi Calm Calm - N/A   Scattered Clouds
9:15 AM 37.4 °F - 37.4 °F 100% 30.24 in 5.0 mi Calm Calm - N/A   Clear
9:35 AM 41.0 °F - 39.2 °F 93% 30.23 in 7.0 mi Calm Calm - N/A   Clear
9:55 AM 42.8 °F - 39.2 °F 87% 30.22 in 10.0 mi Calm Calm - N/A   Clear
10:15 AM 44.6 °F - 39.2 °F 81% 30.23 in 10.0 mi Calm Calm - N/A   Clear
10:35 AM 44.6 °F 43.1 °F 39.2 °F 81% 30.23 in 10.0 mi ESE 3.5 mph - N/A   Scattered Clouds
10:55 AM 46.4 °F 42.9 °F 39.2 °F 76% 30.21 in 10.0 mi ESE 6.9 mph - N/A   Scattered Clouds
11:15 AM 46.4 °F - 39.2 °F 76% 30.22 in 10.0 mi Calm Calm - N/A   Clear
11:35 AM 48.2 °F - 39.2 °F 71% 30.21 in 10.0 mi SE 4.6 mph - N/A   Clear
11:55 AM 50.0 °F - 39.2 °F 66% 30.21 in 10.0 mi South 4.6 mph - N/A   Clear
12:15 PM 51.8 °F - 37.4 °F 58% 30.21 in 10.0 mi South 5.8 mph - N/A   Clear
12:35 PM 51.8 °F - 37.4 °F 58% 30.20 in 10.0 mi SSE 3.5 mph - N/A   Clear
12:55 PM 53.6 °F - 33.8 °F 47% 30.18 in 10.0 mi East 5.8 mph - N/A   Clear
1:15 PM 53.6 °F - 32.0 °F 44% 30.17 in 10.0 mi ESE 4.6 mph - N/A   Scattered Clouds
1:35 PM 53.6 °F - 33.8 °F 47% 30.16 in 10.0 mi Calm Calm - N/A   Mostly Cloudy
1:55 PM 55.4 °F - 33.8 °F 44% 30.16 in 10.0 mi SSE 3.5 mph - N/A   Scattered Clouds
2:15 PM 55.4 °F - 33.8 °F 44% 30.14 in 10.0 mi SW 3.5 mph - N/A   Scattered Clouds
2:35 PM 57.2 °F - 32.0 °F 38% 30.13 in 10.0 mi SE 8.1 mph - N/A   Clear
2:55 PM 57.2 °F - 32.0 °F 38% 30.12 in 10.0 mi SSW 8.1 mph - N/A   Clear
3:15 PM 59.0 °F - 32.0 °F 36% 30.11 in 10.0 mi South 4.6 mph - N/A   Clear
3:35 PM 59.0 °F - 32.0 °F 36% 30.10 in 10.0 mi SE 5.8 mph - N/A   Clear
3:55 PM 59.0 °F - 32.0 °F 36% 30.09 in 10.0 mi SSE 5.8 mph - N/A   Clear
4:15 PM 59.0 °F - 32.0 °F 36% 30.08 in 10.0 mi SW 6.9 mph - N/A   Clear
4:35 PM 60.8 °F - 32.0 °F 34% 30.08 in 10.0 mi SW 11.5 mph 16.1 mph N/A   Clear
4:55 PM 60.8 °F - 32.0 °F 34% 30.07 in 10.0 mi SW 3.5 mph - N/A   Clear
5:15 PM 60.8 °F - 30.2 °F 31% 30.07 in 10.0 mi SSW 5.8 mph - N/A   Clear
5:35 PM 59.0 °F - 32.0 °F 36% 30.06 in 10.0 mi WSW 5.8 mph - N/A   Clear
5:55 PM 59.0 °F - 32.0 °F 36% 30.06 in 10.0 mi WSW 6.9 mph - N/A   Clear
6:15 PM 59.0 °F - 32.0 °F 36% 30.05 in 10.0 mi WSW 4.6 mph - N/A   Clear
6:35 PM 59.0 °F - 32.0 °F 36% 30.05 in 10.0 mi WSW 4.6 mph - N/A   Clear
6:55 PM 57.2 °F - 32.0 °F 38% 30.04 in 10.0 mi WSW 8.1 mph - N/A   Clear
7:15 PM 55.4 °F - 33.8 °F 44% 30.04 in 10.0 mi WSW 4.6 mph - N/A   Clear
7:35 PM 55.4 °F - 33.8 °F 44% 30.03 in 10.0 mi SW 3.5 mph - N/A   Clear
7:55 PM 53.6 °F - 35.6 °F 51% 30.03 in 10.0 mi SW 4.6 mph - N/A   Clear
8:15 PM 53.6 °F - 33.8 °F 47% 30.03 in 10.0 mi SW 5.8 mph - N/A   Clear
8:35 PM 53.6 °F - 35.6 °F 51% 30.03 in 10.0 mi SW 5.8 mph - N/A   Clear
8:55 PM 53.6 °F - 35.6 °F 51% 30.02 in 10.0 mi SW 4.6 mph - N/A   Clear
9:15 PM 51.8 °F - 35.6 °F 54% 30.02 in 10.0 mi SW 6.9 mph - N/A   Clear
9:35 PM 51.8 °F - 35.6 °F 54% 30.02 in 10.0 mi SW 8.1 mph - N/A   Clear
9:55 PM 51.8 °F - 35.6 °F 54% 30.01 in 10.0 mi SSW 6.9 mph - N/A   Clear
10:15 PM 51.8 °F - 35.6 °F 54% 30.00 in 10.0 mi SSW 5.8 mph - N/A   Clear
10:35 PM 51.8 °F - 35.6 °F 54% 30.00 in 10.0 mi SSW 5.8 mph - N/A   Clear
10:55 PM 51.8 °F - 35.6 °F 54% 30.00 in 10.0 mi SSW 6.9 mph - N/A   Clear
11:15 PM 50.0 °F - 37.4 °F 62% 29.99 in 10.0 mi SSW 4.6 mph - N/A   Clear
11:35 PM 51.8 °F - 37.4 °F 58% 29.99 in 10.0 mi SSW 4.6 mph - N/A   Scattered Clouds
11:55 PM 51.8 °F - 37.4 °F 58% 29.98 in 10.0 mi SSW 4.6 mph - N/A   Mostly Cloudy